N7460B KSNA-KLAS

Flight info

Callsign N7460B
Flight time 1h 51m
Altitude 13000
Route MUSEL8 DAG CRESO5
Aircraft C208/L-SDFGR/C

Departure

Time 2026-05-06 05:24
Airport John Wayne Orange County International Airport (KSNA)

Arrival

Time 2026-05-06 07:16
Airport Harry Reid International Airport (KLAS)
Time Latitude Longitude Altitude Speed Heading
2026-05-06 04:35 33.67346 -117.87283 58 ft 0 kts 351°
2026-05-06 05:13 33.67352 -117.87277 55 ft 5 kts 77°
2026-05-06 05:13 33.67349 -117.87222 59 ft 5 kts 64°
2026-05-06 05:14 33.67368 -117.87186 57 ft 8 kts 45°
2026-05-06 05:14 33.67444 -117.87121 56 ft 18 kts 28°
2026-05-06 05:14 33.67559 -117.87049 58 ft 16 kts 28°
2026-05-06 05:14 33.67653 -117.86987 54 ft 15 kts 29°
2026-05-06 05:15 33.67753 -117.86922 55 ft 20 kts 33°
2026-05-06 05:15 33.67902 -117.86827 52 ft 26 kts 25°
2026-05-06 05:15 33.68051 -117.86749 48 ft 21 kts 29°
2026-05-06 05:15 33.68166 -117.86673 47 ft 17 kts 44°
2026-05-06 05:16 33.68190 -117.86617 45 ft 0 kts 85°
2026-05-06 05:21 33.68190 -117.86608 45 ft 5 kts 90°
2026-05-06 05:22 33.68149 -117.86528 45 ft 17 kts 182°
2026-05-06 05:22 33.68029 -117.86596 48 ft 17 kts 209°
2026-05-06 05:22 33.68021 -117.86602 48 ft 0 kts 208°
2026-05-06 05:23 33.68020 -117.86603 48 ft 4 kts 207°
2026-05-06 05:23 33.67831 -117.86722 55 ft 56 kts 210°
2026-05-06 05:23 33.66729 -117.87352 182 ft 109 kts 211°
2026-05-06 05:24 33.66067 -117.87923 234 ft 122 kts 216°
2026-05-06 05:24 33.65383 -117.88468 480 ft 115 kts 212°
2026-05-06 05:24 33.64611 -117.88720 668 ft 117 kts 186°
2026-05-06 05:24 33.63773 -117.88863 776 ft 128 kts 191°
2026-05-06 05:25 33.62844 -117.89040 919 ft 140 kts 190°
2026-05-06 05:25 33.61872 -117.89215 1109 ft 143 kts 190°
2026-05-06 05:25 33.60891 -117.89388 1335 ft 141 kts 190°
2026-05-06 05:25 33.59935 -117.89554 1607 ft 137 kts 190°
2026-05-06 05:26 33.58997 -117.89716 1885 ft 135 kts 190°
2026-05-06 05:26 33.58071 -117.89877 2154 ft 133 kts 190°
2026-05-06 05:26 33.57158 -117.90036 2433 ft 132 kts 191°
2026-05-06 05:26 33.56263 -117.90193 2702 ft 131 kts 190°
2026-05-06 05:27 33.55350 -117.90353 2981 ft 131 kts 190°
2026-05-06 05:27 33.54463 -117.90508 3256 ft 130 kts 190°
2026-05-06 05:27 33.53567 -117.90664 3534 ft 130 kts 190°
2026-05-06 05:27 33.52678 -117.90819 3795 ft 129 kts 190°
2026-05-06 05:28 33.51793 -117.90974 4072 ft 128 kts 190°
2026-05-06 05:28 33.50914 -117.91128 4346 ft 127 kts 190°
2026-05-06 05:28 33.50036 -117.91282 4628 ft 127 kts 190°
2026-05-06 05:28 33.49170 -117.91434 4907 ft 127 kts 191°
2026-05-06 05:29 33.48299 -117.91587 5186 ft 126 kts 190°
2026-05-06 05:29 33.47435 -117.91745 5444 ft 125 kts 196°
2026-05-06 05:29 33.46830 -117.92398 5718 ft 121 kts 252°
2026-05-06 05:29 33.46775 -117.93385 5985 ft 121 kts 282°
2026-05-06 05:30 33.47282 -117.94265 6012 ft 142 kts 324°
2026-05-06 05:30 33.48260 -117.94662 6019 ft 156 kts 345°
2026-05-06 05:30 33.49336 -117.94997 6020 ft 163 kts 342°
2026-05-06 05:30 33.50442 -117.95388 6019 ft 167 kts 341°
2026-05-06 05:31 33.51567 -117.95793 6016 ft 170 kts 341°
2026-05-06 05:31 33.52684 -117.96194 6020 ft 170 kts 341°
2026-05-06 05:31 33.53793 -117.96593 6179 ft 161 kts 341°
2026-05-06 05:31 33.54844 -117.96973 6401 ft 154 kts 341°
2026-05-06 05:32 33.55844 -117.97337 6610 ft 149 kts 341°
2026-05-06 05:32 33.56819 -117.97691 6820 ft 145 kts 341°
2026-05-06 05:32 33.57775 -117.98036 7031 ft 142 kts 341°
2026-05-06 05:32 33.58721 -117.98380 7244 ft 142 kts 341°
2026-05-06 05:33 33.59665 -117.98722 7463 ft 141 kts 341°
2026-05-06 05:33 33.60604 -117.99059 7685 ft 141 kts 342°
2026-05-06 05:33 33.61539 -117.99398 7908 ft 140 kts 342°
2026-05-06 05:33 33.62473 -117.99736 8131 ft 140 kts 342°
2026-05-06 05:34 33.63401 -118.00069 8357 ft 139 kts 342°
2026-05-06 05:34 33.64314 -118.00400 8579 ft 138 kts 342°
2026-05-06 05:34 33.65230 -118.00732 8811 ft 137 kts 343°
2026-05-06 05:34 33.66142 -118.01063 9036 ft 137 kts 343°
2026-05-06 05:35 33.67049 -118.01391 9266 ft 136 kts 343°
2026-05-06 05:35 33.67952 -118.01718 9475 ft 135 kts 343°
2026-05-06 05:35 33.68849 -118.02042 9708 ft 135 kts 344°
2026-05-06 05:35 33.69746 -118.02366 9939 ft 134 kts 345°
2026-05-06 05:36 33.70638 -118.02691 10157 ft 134 kts 345°
2026-05-06 05:36 33.71532 -118.03013 10367 ft 133 kts 344°
2026-05-06 05:36 33.72419 -118.03335 10583 ft 133 kts 344°
2026-05-06 05:36 33.73300 -118.03655 10794 ft 132 kts 345°
2026-05-06 05:37 33.74177 -118.03973 11012 ft 131 kts 344°
2026-05-06 05:37 33.75050 -118.04289 11230 ft 130 kts 344°
2026-05-06 05:37 33.75905 -118.04599 11446 ft 130 kts 343°
2026-05-06 05:37 33.76767 -118.04911 11665 ft 129 kts 343°
2026-05-06 05:38 33.77626 -118.05223 11885 ft 129 kts 343°
2026-05-06 05:38 33.78481 -118.05533 12108 ft 128 kts 343°
2026-05-06 05:38 33.79330 -118.05842 12329 ft 127 kts 343°
2026-05-06 05:38 33.80176 -118.06149 12563 ft 126 kts 343°
2026-05-06 05:39 33.81016 -118.06454 12787 ft 126 kts 343°
2026-05-06 05:39 33.81852 -118.06758 12985 ft 128 kts 342°
2026-05-06 05:39 33.82756 -118.07084 12998 ft 142 kts 343°
2026-05-06 05:39 33.83744 -118.07438 12997 ft 153 kts 343°
2026-05-06 05:40 33.84793 -118.07814 13002 ft 160 kts 343°
2026-05-06 05:40 33.85860 -118.08200 13019 ft 164 kts 343°
2026-05-06 05:40 33.86965 -118.08602 13016 ft 167 kts 343°
2026-05-06 05:40 33.88084 -118.09009 13015 ft 168 kts 343°
2026-05-06 05:41 33.89212 -118.09419 13015 ft 170 kts 343°
2026-05-06 05:41 33.90343 -118.09830 13016 ft 170 kts 343°
2026-05-06 05:41 33.91480 -118.10244 13014 ft 171 kts 343°
2026-05-06 05:41 33.92622 -118.10660 13010 ft 171 kts 344°
2026-05-06 05:42 33.93764 -118.11076 13009 ft 171 kts 343°
2026-05-06 05:42 33.94904 -118.11491 13012 ft 171 kts 343°
2026-05-06 05:42 33.96048 -118.11908 12998 ft 172 kts 344°
2026-05-06 05:42 33.96804 -118.12183 12996 ft 172 kts 344°
2026-05-06 05:43 33.98322 -118.12736 12998 ft 172 kts 344°
2026-05-06 05:43 33.99467 -118.13154 12993 ft 172 kts 344°
2026-05-06 05:43 34.00606 -118.13569 13001 ft 171 kts 344°
2026-05-06 05:43 34.01749 -118.13986 12999 ft 171 kts 344°
2026-05-06 05:44 34.02506 -118.14262 12997 ft 171 kts 344°
2026-05-06 05:44 34.03649 -118.14679 12996 ft 171 kts 344°
2026-05-06 05:44 34.04791 -118.15097 12994 ft 171 kts 344°
2026-05-06 05:44 34.05935 -118.15514 12994 ft 172 kts 344°
2026-05-06 05:45 34.07078 -118.15931 12990 ft 172 kts 344°
2026-05-06 05:45 34.08222 -118.16349 12990 ft 172 kts 344°
2026-05-06 05:45 34.09366 -118.16768 12995 ft 171 kts 344°
2026-05-06 05:45 34.10522 -118.17083 12990 ft 170 kts
2026-05-06 05:46 34.11577 -118.16509 12991 ft 172 kts 46°
2026-05-06 05:46 34.12029 -118.15200 13003 ft 174 kts 78°
2026-05-06 05:46 34.12203 -118.13729 13001 ft 175 kts 79°
2026-05-06 05:46 34.12371 -118.12291 13004 ft 176 kts 79°
2026-05-06 05:47 34.12539 -118.10830 13000 ft 175 kts 80°
2026-05-06 05:47 34.12706 -118.09366 12997 ft 176 kts 79°
2026-05-06 05:47 34.12872 -118.07907 12996 ft 176 kts 79°
2026-05-06 05:47 34.13038 -118.06441 12998 ft 176 kts 80°
2026-05-06 05:48 34.12844 -118.04991 12988 ft 181 kts 118°
2026-05-06 05:48 34.11865 -118.04050 12994 ft 186 kts 161°
2026-05-06 05:48 34.10598 -118.03833 12992 ft 186 kts 171°
2026-05-06 05:48 34.09342 -118.04076 12995 ft 186 kts 211°
2026-05-06 05:49 34.08536 -118.05238 12999 ft 182 kts 255°
2026-05-06 05:49 34.08587 -118.06697 12994 ft 175 kts 298°
2026-05-06 05:49 34.09428 -118.07667 12993 ft 169 kts 341°
2026-05-06 05:49 34.10573 -118.07647 12999 ft 167 kts 17°
2026-05-06 05:50 34.11537 -118.06896 12994 ft 169 kts 47°
2026-05-06 05:50 34.12270 -118.05783 12994 ft 169 kts 50°
2026-05-06 05:50 34.12992 -118.04658 12991 ft 170 kts 51°
2026-05-06 05:50 34.13715 -118.03527 12989 ft 170 kts 51°
2026-05-06 05:51 34.14435 -118.02395 12991 ft 170 kts 51°
2026-05-06 05:51 34.15146 -118.01277 13001 ft 170 kts 51°
2026-05-06 05:51 34.15865 -118.00144 13000 ft 170 kts 51°
2026-05-06 05:51 34.16583 -117.99013 12999 ft 169 kts 51°
2026-05-06 05:52 34.17299 -117.97881 12999 ft 168 kts 51°
2026-05-06 05:52 34.17965 -117.96715 13002 ft 169 kts 54°
2026-05-06 05:52 34.18623 -117.95536 13005 ft 169 kts 53°
2026-05-06 05:52 34.19290 -117.94367 13004 ft 170 kts 53°
2026-05-06 05:53 34.19964 -117.93194 13003 ft 170 kts 53°
2026-05-06 05:53 34.20630 -117.92034 13003 ft 166 kts 53°
2026-05-06 05:53 34.21294 -117.90876 12996 ft 167 kts 53°
2026-05-06 05:53 34.21957 -117.89724 12996 ft 167 kts 53°
2026-05-06 05:54 34.22618 -117.88570 13002 ft 167 kts 53°
2026-05-06 05:54 34.23283 -117.87409 13002 ft 168 kts 53°
2026-05-06 05:54 34.23953 -117.86241 13002 ft 169 kts 53°
2026-05-06 05:54 34.24620 -117.85077 12999 ft 168 kts 53°
2026-05-06 05:55 34.25283 -117.83919 12997 ft 167 kts 53°
2026-05-06 05:55 34.25945 -117.82763 13000 ft 167 kts 53°
2026-05-06 05:55 34.26596 -117.81624 12994 ft 166 kts 54°
2026-05-06 05:55 34.27255 -117.80474 12996 ft 167 kts 53°
2026-05-06 05:56 34.27914 -117.79323 12993 ft 166 kts 53°
2026-05-06 05:56 34.28566 -117.78180 12995 ft 165 kts 53°
2026-05-06 05:56 34.29217 -117.77045 12996 ft 162 kts 53°
2026-05-06 05:56 34.29860 -117.75920 12997 ft 164 kts 53°
2026-05-06 05:57 34.30510 -117.74782 12995 ft 164 kts 53°
2026-05-06 05:57 34.31163 -117.73637 12996 ft 166 kts 53°
2026-05-06 05:57 34.31820 -117.72484 12993 ft 166 kts 53°
2026-05-06 05:57 34.32467 -117.71352 12992 ft 166 kts 53°
2026-05-06 05:58 34.33123 -117.70202 12995 ft 166 kts 53°
2026-05-06 05:58 34.33783 -117.69046 12991 ft 167 kts 53°
2026-05-06 05:58 34.34440 -117.67892 12979 ft 164 kts 53°
2026-05-06 05:58 34.35079 -117.66771 12985 ft 161 kts 53°
2026-05-06 05:59 34.35724 -117.65641 12982 ft 165 kts 53°
2026-05-06 05:59 34.36380 -117.64490 12981 ft 166 kts 53°
2026-05-06 05:59 34.37031 -117.63345 12979 ft 164 kts 53°
2026-05-06 05:59 34.37683 -117.62198 12973 ft 165 kts 53°
2026-05-06 06:00 34.38335 -117.61052 12972 ft 165 kts 53°
2026-05-06 06:00 34.38980 -117.59920 12978 ft 165 kts 53°
2026-05-06 06:00 34.39629 -117.58779 12982 ft 164 kts 53°
2026-05-06 06:00 34.40277 -117.57639 12981 ft 164 kts 53°
2026-05-06 06:01 34.40927 -117.56495 12984 ft 164 kts 53°
2026-05-06 06:01 34.41576 -117.55352 12989 ft 164 kts 53°
2026-05-06 06:01 34.42224 -117.54212 12990 ft 164 kts 53°
2026-05-06 06:01 34.42872 -117.53072 12993 ft 164 kts 53°
2026-05-06 06:02 34.43516 -117.51936 12994 ft 163 kts 53°
2026-05-06 06:02 34.44161 -117.50800 12999 ft 163 kts 53°
2026-05-06 06:02 34.44796 -117.49680 12998 ft 163 kts 53°
2026-05-06 06:02 34.45438 -117.48548 13002 ft 163 kts 53°
2026-05-06 06:03 34.46079 -117.47417 13006 ft 163 kts 53°
2026-05-06 06:03 34.46721 -117.46285 13007 ft 163 kts 53°
2026-05-06 06:03 34.47362 -117.45154 13007 ft 163 kts 53°
2026-05-06 06:03 34.48002 -117.44025 13006 ft 162 kts 53°
2026-05-06 06:04 34.48638 -117.42900 13018 ft 162 kts 53°
2026-05-06 06:04 34.49273 -117.41779 13020 ft 162 kts 53°
2026-05-06 06:04 34.49910 -117.40654 13022 ft 161 kts 53°
2026-05-06 06:04 34.50546 -117.39529 13030 ft 161 kts 53°
2026-05-06 06:05 34.51173 -117.38421 13029 ft 162 kts 53°
2026-05-06 06:05 34.51810 -117.37293 13030 ft 162 kts 53°
2026-05-06 06:05 34.52446 -117.36169 13032 ft 162 kts 53°
2026-05-06 06:05 34.53080 -117.35045 13033 ft 162 kts 53°
2026-05-06 06:06 34.53715 -117.33921 13033 ft 161 kts 53°
2026-05-06 06:06 34.54349 -117.32799 13033 ft 161 kts 53°
2026-05-06 06:06 34.54984 -117.31675 13034 ft 161 kts 53°
2026-05-06 06:06 34.55617 -117.30552 13033 ft 161 kts 53°
2026-05-06 06:07 34.56251 -117.29429 13034 ft 161 kts 54°
2026-05-06 06:07 34.56882 -117.28309 13030 ft 161 kts 53°
2026-05-06 06:07 34.57515 -117.27188 13031 ft 161 kts 54°
2026-05-06 06:07 34.58144 -117.26070 13025 ft 161 kts 54°
2026-05-06 06:08 34.58775 -117.24950 13024 ft 161 kts 54°
2026-05-06 06:08 34.59409 -117.23824 13018 ft 162 kts 54°
2026-05-06 06:08 34.60037 -117.22709 13018 ft 162 kts 54°
2026-05-06 06:08 34.60673 -117.21579 13014 ft 162 kts 54°
2026-05-06 06:09 34.61311 -117.20444 13011 ft 162 kts 54°
2026-05-06 06:09 34.61950 -117.19309 13009 ft 162 kts 54°
2026-05-06 06:09 34.62588 -117.18175 13005 ft 162 kts 54°
2026-05-06 06:09 34.63226 -117.17040 12997 ft 163 kts 54°
2026-05-06 06:10 34.63857 -117.15917 12994 ft 163 kts 54°
2026-05-06 06:10 34.64494 -117.14783 12990 ft 163 kts 54°
2026-05-06 06:10 34.65132 -117.13646 12983 ft 162 kts 54°
2026-05-06 06:10 34.65768 -117.12513 12984 ft 163 kts 54°
2026-05-06 06:11 34.66405 -117.11378 12974 ft 163 kts 54°
2026-05-06 06:11 34.67044 -117.10240 12971 ft 162 kts 54°
2026-05-06 06:11 34.67681 -117.09104 12964 ft 162 kts 54°
2026-05-06 06:11 34.68318 -117.07967 12959 ft 163 kts 54°
2026-05-06 06:12 34.68945 -117.06849 12947 ft 161 kts 54°
2026-05-06 06:12 34.69575 -117.05725 12932 ft 162 kts 54°
2026-05-06 06:12 34.70210 -117.04592 12932 ft 163 kts 54°
2026-05-06 06:12 34.70849 -117.03450 12933 ft 163 kts 54°
2026-05-06 06:13 34.71486 -117.02313 12936 ft 162 kts 54°
2026-05-06 06:13 34.72122 -117.01177 12934 ft 163 kts 54°
2026-05-06 06:13 34.72757 -117.00042 12936 ft 162 kts 54°
2026-05-06 06:13 34.73389 -116.98910 12937 ft 162 kts 54°
2026-05-06 06:14 34.74021 -116.97779 12943 ft 161 kts 54°
2026-05-06 06:14 34.74652 -116.96651 12939 ft 161 kts 54°
2026-05-06 06:14 34.75274 -116.95539 12942 ft 161 kts 54°
2026-05-06 06:14 34.75904 -116.94411 12942 ft 161 kts 54°
2026-05-06 06:15 34.76533 -116.93285 12948 ft 161 kts 54°
2026-05-06 06:15 34.77160 -116.92160 12948 ft 160 kts 54°
2026-05-06 06:15 34.77789 -116.91033 12951 ft 161 kts 54°
2026-05-06 06:15 34.78419 -116.89903 12951 ft 161 kts 54°
2026-05-06 06:16 34.79045 -116.88784 12954 ft 160 kts 54°
2026-05-06 06:16 34.79672 -116.87658 12958 ft 161 kts 54°
2026-05-06 06:16 34.80300 -116.86530 12961 ft 161 kts 54°
2026-05-06 06:16 34.80930 -116.85402 12958 ft 161 kts 54°
2026-05-06 06:17 34.81550 -116.84285 12958 ft 161 kts 54°
2026-05-06 06:17 34.82180 -116.83154 12960 ft 161 kts 54°
2026-05-06 06:17 34.82808 -116.82025 12961 ft 161 kts 54°
2026-05-06 06:17 34.83436 -116.80898 12957 ft 161 kts 54°
2026-05-06 06:18 34.84062 -116.79773 12959 ft 160 kts 54°
2026-05-06 06:18 34.84687 -116.78648 12957 ft 160 kts 54°
2026-05-06 06:18 34.85311 -116.77526 12958 ft 160 kts 54°
2026-05-06 06:18 34.85932 -116.76408 12959 ft 159 kts 54°
2026-05-06 06:19 34.86551 -116.75294 12957 ft 158 kts 54°
2026-05-06 06:19 34.87167 -116.74186 12953 ft 157 kts 54°
2026-05-06 06:19 34.87777 -116.73088 12955 ft 157 kts 54°
2026-05-06 06:19 34.88387 -116.71989 12951 ft 156 kts 54°
2026-05-06 06:20 34.88989 -116.70903 12954 ft 156 kts 54°
2026-05-06 06:20 34.89599 -116.69804 12950 ft 156 kts 54°
2026-05-06 06:20 34.90206 -116.68711 12950 ft 156 kts 54°
2026-05-06 06:20 34.90815 -116.67611 12948 ft 156 kts 54°
2026-05-06 06:21 34.91425 -116.66512 12941 ft 156 kts 54°
2026-05-06 06:21 34.92035 -116.65410 12938 ft 156 kts 54°
2026-05-06 06:21 34.92644 -116.64311 12938 ft 156 kts 54°
2026-05-06 06:21 34.93253 -116.63212 12931 ft 156 kts 54°
2026-05-06 06:22 34.93855 -116.62123 12931 ft 156 kts 54°
2026-05-06 06:22 34.94462 -116.61028 12924 ft 156 kts 54°
2026-05-06 06:22 34.95069 -116.59930 12926 ft 156 kts 54°
2026-05-06 06:22 34.95674 -116.58835 12922 ft 156 kts 54°
2026-05-06 06:23 34.96275 -116.57736 12917 ft 156 kts 57°
2026-05-06 06:23 34.96787 -116.56565 12914 ft 156 kts 59°
2026-05-06 06:23 34.97312 -116.55398 12912 ft 157 kts 59°
2026-05-06 06:23 34.97834 -116.54230 12905 ft 156 kts 59°
2026-05-06 06:24 34.98350 -116.53072 12902 ft 156 kts 59°
2026-05-06 06:24 34.98870 -116.51904 12901 ft 156 kts 59°
2026-05-06 06:24 34.99390 -116.50737 12899 ft 157 kts 59°
2026-05-06 06:24 34.99903 -116.49584 12891 ft 157 kts 59°
2026-05-06 06:25 35.00423 -116.48413 12890 ft 157 kts 59°
2026-05-06 06:25 35.00944 -116.47240 12879 ft 157 kts 59°
2026-05-06 06:25 35.01986 -116.44892 12879 ft 157 kts 59°
2026-05-06 06:26 35.02508 -116.43718 12880 ft 157 kts 59°
2026-05-06 06:26 35.03031 -116.42538 12881 ft 158 kts 59°
2026-05-06 06:26 35.03553 -116.41360 12881 ft 158 kts 59°
2026-05-06 06:26 35.04076 -116.40181 12881 ft 158 kts 59°
2026-05-06 06:27 35.04592 -116.39018 12879 ft 158 kts 59°
2026-05-06 06:27 35.05120 -116.37828 12878 ft 157 kts 59°
2026-05-06 06:27 35.05633 -116.36668 12877 ft 157 kts 59°
2026-05-06 06:27 35.06154 -116.35491 12875 ft 158 kts 59°
2026-05-06 06:28 35.06677 -116.34311 12872 ft 158 kts 59°
2026-05-06 06:28 35.07198 -116.33131 12872 ft 158 kts 59°
2026-05-06 06:28 35.07722 -116.31948 12876 ft 159 kts 59°
2026-05-06 06:28 35.08250 -116.30754 12878 ft 160 kts 59°
2026-05-06 06:29 35.08780 -116.29554 12876 ft 160 kts 59°
2026-05-06 06:29 35.09311 -116.28355 12877 ft 160 kts 59°
2026-05-06 06:29 35.09839 -116.27155 12875 ft 160 kts 59°
2026-05-06 06:29 35.10358 -116.25980 12874 ft 159 kts 59°
2026-05-06 06:30 35.10883 -116.24792 12871 ft 159 kts 59°
2026-05-06 06:30 35.11405 -116.23609 12869 ft 158 kts 59°
2026-05-06 06:30 35.11926 -116.22427 12869 ft 158 kts 59°
2026-05-06 06:30 35.12448 -116.21244 12870 ft 158 kts 59°
2026-05-06 06:31 35.12970 -116.20061 12868 ft 158 kts 59°
2026-05-06 06:31 35.13313 -116.19279 12871 ft 158 kts 59°
2026-05-06 06:31 35.13835 -116.18097 12868 ft 158 kts 59°
2026-05-06 06:31 35.14358 -116.16910 12870 ft 158 kts 59°
2026-05-06 06:32 35.14875 -116.15735 12878 ft 156 kts 59°
2026-05-06 06:32 35.15390 -116.14564 12877 ft 156 kts 58°
2026-05-06 06:32 35.15903 -116.13400 12875 ft 156 kts 58°
2026-05-06 06:32 35.16418 -116.12230 12872 ft 156 kts 59°
2026-05-06 06:33 35.16934 -116.11054 12877 ft 157 kts 59°
2026-05-06 06:33 35.17452 -116.09875 12881 ft 157 kts 58°
2026-05-06 06:33 35.17963 -116.08712 12881 ft 157 kts 59°
2026-05-06 06:33 35.18481 -116.07533 12884 ft 157 kts 59°
2026-05-06 06:34 35.18998 -116.06355 12883 ft 157 kts 59°
2026-05-06 06:34 35.19515 -116.05176 12882 ft 157 kts 59°
2026-05-06 06:34 35.20033 -116.03997 12885 ft 157 kts 59°
2026-05-06 06:34 35.20550 -116.02817 12885 ft 157 kts 59°
2026-05-06 06:35 35.21067 -116.01637 12889 ft 158 kts 58°
2026-05-06 06:35 35.21586 -116.00455 12885 ft 158 kts 59°
2026-05-06 06:35 35.22104 -115.99269 12889 ft 158 kts 59°
2026-05-06 06:35 35.22623 -115.98087 12887 ft 158 kts 59°
2026-05-06 06:36 35.23137 -115.96912 12889 ft 158 kts 59°
2026-05-06 06:36 35.23655 -115.95727 12891 ft 158 kts 59°
2026-05-06 06:36 35.24177 -115.94536 12890 ft 158 kts 59°
2026-05-06 06:36 35.24697 -115.93347 12894 ft 159 kts 59°
2026-05-06 06:37 35.25219 -115.92153 12891 ft 159 kts 59°
2026-05-06 06:37 35.25738 -115.90964 12891 ft 159 kts 59°
2026-05-06 06:37 35.26260 -115.89770 12893 ft 159 kts 59°
2026-05-06 06:37 35.26783 -115.88572 12894 ft 160 kts 59°
2026-05-06 06:38 35.27305 -115.87375 12893 ft 159 kts 59°
2026-05-06 06:38 35.27828 -115.86178 12893 ft 160 kts 59°
2026-05-06 06:38 35.28352 -115.84976 12899 ft 160 kts 59°
2026-05-06 06:38 35.28876 -115.83775 12898 ft 160 kts 59°
2026-05-06 06:39 35.29399 -115.82573 12900 ft 160 kts 59°
2026-05-06 06:39 35.29921 -115.81378 12899 ft 160 kts 59°
2026-05-06 06:39 35.30444 -115.80176 12903 ft 159 kts 59°
2026-05-06 06:39 35.30959 -115.78993 12903 ft 159 kts 59°
2026-05-06 06:40 35.31615 -115.77925 12904 ft 156 kts 44°
2026-05-06 06:40 35.32365 -115.76961 12906 ft 157 kts 46°
2026-05-06 06:40 35.33118 -115.75960 12761 ft 162 kts 46°
2026-05-06 06:40 35.33841 -115.74988 12466 ft 148 kts 46°
2026-05-06 06:41 35.34524 -115.74083 12169 ft 142 kts 45°
2026-05-06 06:41 35.35185 -115.73211 11877 ft 138 kts 45°
2026-05-06 06:41 35.35831 -115.72356 11584 ft 136 kts 45°
2026-05-06 06:41 35.36468 -115.71507 11309 ft 135 kts 45°
2026-05-06 06:42 35.37100 -115.70665 11070 ft 132 kts 45°
2026-05-06 06:42 35.37687 -115.69883 11049 ft 118 kts 45°
2026-05-06 06:42 35.38220 -115.69175 11051 ft 109 kts 44°
2026-05-06 06:42 35.38711 -115.68524 11052 ft 102 kts 44°
2026-05-06 06:43 35.39183 -115.67897 11051 ft 98 kts 44°
2026-05-06 06:43 35.39635 -115.67296 11053 ft 94 kts 43°
2026-05-06 06:43 35.40074 -115.66714 11050 ft 92 kts 43°
2026-05-06 06:43 35.40506 -115.66140 11056 ft 90 kts 43°
2026-05-06 06:44 35.40927 -115.65578 11056 ft 89 kts 43°
2026-05-06 06:44 35.41342 -115.65025 11055 ft 87 kts 43°
2026-05-06 06:44 35.41749 -115.64482 11054 ft 86 kts 43°
2026-05-06 06:44 35.42150 -115.63949 11060 ft 84 kts 43°
2026-05-06 06:45 35.42542 -115.63426 11056 ft 83 kts 43°
2026-05-06 06:45 35.42929 -115.62909 11060 ft 81 kts 42°
2026-05-06 06:45 35.43305 -115.62408 11056 ft 79 kts 43°
2026-05-06 06:45 35.43672 -115.61919 11054 ft 77 kts 42°
2026-05-06 06:46 35.44029 -115.61444 11056 ft 75 kts 42°
2026-05-06 06:46 35.44379 -115.60983 11061 ft 76 kts 41°
2026-05-06 06:46 35.44760 -115.60475 11099 ft 88 kts 43°
2026-05-06 06:46 35.45210 -115.59861 11117 ft 102 kts 44°
2026-05-06 06:47 35.45714 -115.59181 11105 ft 117 kts 45°
2026-05-06 06:47 35.46291 -115.58403 11043 ft 128 kts 45°
2026-05-06 06:47 35.46905 -115.57572 10888 ft 134 kts 45°
2026-05-06 06:47 35.47541 -115.56717 10726 ft 138 kts 45°
2026-05-06 06:48 35.48194 -115.55840 10546 ft 140 kts 45°
2026-05-06 06:48 35.48860 -115.54948 10365 ft 142 kts 45°
2026-05-06 06:48 35.49532 -115.54048 10178 ft 144 kts 45°
2026-05-06 06:48 35.50212 -115.53135 10000 ft 146 kts 45°
2026-05-06 06:49 35.50904 -115.52208 9805 ft 148 kts 45°
2026-05-06 06:49 35.51602 -115.51273 9599 ft 149 kts 45°
2026-05-06 06:49 35.52301 -115.50336 9396 ft 149 kts 45°
2026-05-06 06:49 35.52994 -115.49407 9188 ft 150 kts 45°
2026-05-06 06:50 35.53700 -115.48460 8985 ft 151 kts 45°
2026-05-06 06:50 35.54408 -115.47509 8780 ft 151 kts 45°
2026-05-06 06:50 35.55121 -115.46552 8576 ft 152 kts 45°
2026-05-06 06:50 35.55838 -115.45592 8377 ft 153 kts 45°
2026-05-06 06:51 35.56630 -115.44734 8176 ft 152 kts 35°
2026-05-06 06:51 35.57476 -115.43948 7975 ft 153 kts 36°
2026-05-06 06:51 35.58311 -115.43133 7777 ft 154 kts 37°
2026-05-06 06:51 35.59143 -115.42306 7582 ft 154 kts 37°
2026-05-06 06:52 35.59981 -115.41472 7386 ft 155 kts 37°
2026-05-06 06:52 35.60820 -115.40635 7192 ft 156 kts 37°
2026-05-06 06:52 35.61659 -115.39799 7068 ft 152 kts 37°
2026-05-06 06:52 35.62451 -115.39009 7061 ft 145 kts 36°
2026-05-06 06:53 35.63234 -115.38233 7053 ft 141 kts 37°
2026-05-06 06:53 35.63982 -115.37489 7053 ft 138 kts 36°
2026-05-06 06:53 35.64726 -115.36750 7052 ft 137 kts 36°
2026-05-06 06:53 35.65466 -115.36009 7054 ft 137 kts 36°
2026-05-06 06:54 35.66206 -115.35273 7055 ft 137 kts 36°
2026-05-06 06:54 35.66946 -115.34532 7052 ft 139 kts 36°
2026-05-06 06:54 35.67708 -115.33773 7056 ft 142 kts 36°
2026-05-06 06:54 35.68481 -115.32997 7063 ft 144 kts 37°
2026-05-06 06:55 35.69265 -115.32211 7065 ft 146 kts 36°
2026-05-06 06:55 35.70057 -115.31420 7063 ft 147 kts 36°
2026-05-06 06:55 35.70844 -115.30632 7064 ft 148 kts 37°
2026-05-06 06:55 35.71642 -115.29832 7061 ft 148 kts 37°
2026-05-06 06:56 35.72442 -115.29032 7060 ft 148 kts 36°
2026-05-06 06:56 35.73243 -115.28231 7056 ft 148 kts 37°
2026-05-06 06:56 35.74043 -115.27430 7053 ft 147 kts 37°
2026-05-06 06:56 35.74835 -115.26637 7059 ft 147 kts 37°
2026-05-06 06:57 35.75631 -115.25840 7052 ft 148 kts 36°
2026-05-06 06:57 35.76434 -115.25039 7054 ft 149 kts 37°
2026-05-06 06:57 35.77235 -115.24232 7051 ft 148 kts 37°
2026-05-06 06:57 35.78035 -115.23432 7049 ft 148 kts 37°
2026-05-06 06:58 35.78835 -115.22630 7054 ft 149 kts 37°
2026-05-06 06:58 35.79627 -115.21834 7053 ft 149 kts 37°
2026-05-06 06:58 35.80435 -115.21026 7047 ft 150 kts 37°
2026-05-06 06:58 35.81238 -115.20218 7049 ft 149 kts 37°
2026-05-06 06:59 35.82046 -115.19409 7051 ft 149 kts 37°
2026-05-06 06:59 35.82850 -115.18601 7045 ft 149 kts 37°
2026-05-06 06:59 35.83655 -115.17791 7046 ft 149 kts 37°
2026-05-06 06:59 35.84456 -115.16987 7047 ft 149 kts 38°
2026-05-06 07:00 35.85260 -115.16181 7066 ft 149 kts 37°
2026-05-06 07:00 35.86067 -115.15367 7067 ft 150 kts 38°
2026-05-06 07:00 35.86868 -115.14562 7068 ft 150 kts 37°
2026-05-06 07:00 35.87678 -115.13749 7063 ft 150 kts 38°
2026-05-06 07:01 35.88487 -115.12934 7065 ft 150 kts 38°
2026-05-06 07:01 35.89299 -115.12118 7064 ft 150 kts 37°
2026-05-06 07:01 35.90110 -115.11303 7071 ft 151 kts 38°
2026-05-06 07:01 35.90925 -115.10483 7059 ft 151 kts 38°
2026-05-06 07:02 35.91737 -115.09665 7063 ft 151 kts 38°
2026-05-06 07:02 35.92541 -115.08854 7062 ft 151 kts 38°
2026-05-06 07:02 35.93358 -115.08031 7063 ft 151 kts 38°
2026-05-06 07:02 35.94175 -115.07209 7061 ft 151 kts 38°
2026-05-06 07:03 35.94989 -115.06388 7062 ft 151 kts 38°
2026-05-06 07:03 35.95801 -115.05568 7063 ft 151 kts 38°
2026-05-06 07:03 35.96616 -115.04746 7066 ft 151 kts 38°
2026-05-06 07:03 35.97431 -115.03925 7060 ft 151 kts 38°
2026-05-06 07:04 35.98244 -115.03104 7056 ft 151 kts 38°
2026-05-06 07:04 35.99059 -115.02283 7057 ft 151 kts 38°
2026-05-06 07:04 35.99735 -115.01301 7051 ft 152 kts 65°
2026-05-06 07:04 35.99925 -115.00026 7054 ft 153 kts 90°
2026-05-06 07:05 35.99903 -114.98715 7021 ft 152 kts 90°
2026-05-06 07:05 35.99899 -114.97422 7028 ft 152 kts 90°
2026-05-06 07:05 35.99892 -114.96098 7026 ft 152 kts 90°
2026-05-06 07:05 35.99884 -114.94790 7031 ft 152 kts 90°
2026-05-06 07:06 35.99892 -114.93497 6989 ft 155 kts 86°
2026-05-06 07:06 36.00280 -114.92233 6866 ft 160 kts 52°
2026-05-06 07:06 36.01123 -114.91364 6750 ft 162 kts 29°
2026-05-06 07:06 36.02109 -114.90673 6637 ft 164 kts 30°
2026-05-06 07:07 36.03128 -114.90054 6514 ft 161 kts 13°
2026-05-06 07:07 36.04183 -114.90033 6365 ft 144 kts 346°
2026-05-06 07:07 36.05063 -114.90480 6212 ft 132 kts 324°
2026-05-06 07:07 36.05832 -114.91086 5976 ft 127 kts 325°
2026-05-06 07:08 36.06558 -114.91623 5721 ft 118 kts 325°
2026-05-06 07:08 36.07177 -114.92230 5466 ft 111 kts 301°
2026-05-06 07:08 36.07340 -114.93117 5199 ft 106 kts 266°
2026-05-06 07:08 36.07360 -114.94036 4900 ft 107 kts 269°
2026-05-06 07:09 36.07373 -114.94941 4614 ft 107 kts 269°
2026-05-06 07:09 36.07380 -114.95858 4312 ft 106 kts 269°
2026-05-06 07:09 36.07378 -114.96767 4025 ft 105 kts 268°
2026-05-06 07:09 36.07380 -114.97659 3816 ft 98 kts 268°
2026-05-06 07:10 36.07376 -114.98390 3802 ft 73 kts 267°
2026-05-06 07:10 36.07372 -114.98962 3749 ft 63 kts 265°
2026-05-06 07:10 36.07373 -114.99496 3650 ft 59 kts 264°
2026-05-06 07:10 36.07371 -114.99986 3555 ft 60 kts 266°
2026-05-06 07:11 36.07352 -115.00492 3695 ft 60 kts 266°
2026-05-06 07:11 36.07319 -115.01026 3771 ft 70 kts 251°
2026-05-06 07:11 36.07255 -115.01632 3722 ft 72 kts 268°
2026-05-06 07:11 36.07313 -115.02245 3583 ft 73 kts 274°
2026-05-06 07:12 36.07370 -115.02861 3459 ft 67 kts 262°
2026-05-06 07:12 36.07368 -115.03427 3497 ft 59 kts 263°
2026-05-06 07:12 36.07318 -115.04020 3438 ft 81 kts 265°
2026-05-06 07:12 36.07332 -115.04776 3341 ft 97 kts 272°
2026-05-06 07:13 36.07334 -115.05610 3301 ft 94 kts 266°
2026-05-06 07:13 36.07346 -115.06438 3104 ft 99 kts 271°
2026-05-06 07:13 36.07410 -115.07214 2942 ft 85 kts 271°
2026-05-06 07:13 36.07435 -115.07928 2777 ft 83 kts 259°
2026-05-06 07:14 36.07388 -115.08646 2595 ft 85 kts 258°
2026-05-06 07:14 36.07372 -115.09388 2515 ft 85 kts 266°
2026-05-06 07:14 36.07381 -115.10103 2431 ft 85 kts 260°
2026-05-06 07:14 36.07374 -115.10822 2378 ft 81 kts 265°
2026-05-06 07:15 36.07366 -115.11520 2317 ft 82 kts 268°
2026-05-06 07:15 36.07372 -115.12216 2187 ft 80 kts 262°
2026-05-06 07:15 36.07368 -115.12891 2083 ft 76 kts 266°
2026-05-06 07:15 36.07357 -115.13457 2079 ft 59 kts 272°
2026-05-06 07:16 36.07365 -115.13951 2099 ft 56 kts 272°
2026-05-06 07:16 36.07369 -115.14242 2110 ft 35 kts 279°
2026-05-06 07:16 36.07428 -115.14497 2119 ft 27 kts 295°
2026-05-06 07:16 36.07479 -115.14607 2123 ft 0 kts 301°
2026-05-06 07:17 36.07481 -115.14612 2123 ft 3 kts 301°
2026-05-06 07:17 36.07519 -115.14653 2128 ft 11 kts 346°
2026-05-06 07:17 36.07532 -115.14655 2129 ft 0 kts 354°
2026-05-06 07:17 36.07537 -115.14656 2129 ft 3 kts 353°
2026-05-06 07:18 36.07592 -115.14659 2131 ft 13 kts
2026-05-06 07:18 36.07731 -115.14660 2128 ft 27 kts 356°
2026-05-06 07:18 36.07803 -115.14699 2127 ft 4 kts 329°
2026-05-06 07:18 36.07864 -115.14734 2129 ft 16 kts 351°
2026-05-06 07:19 36.08007 -115.14790 2127 ft 28 kts 331°
2026-05-06 07:19 36.08188 -115.14894 2125 ft 20 kts 338°
2026-05-06 07:19 36.08287 -115.14971 2124 ft 15 kts 320°
2026-05-06 07:19 36.08285 -115.15040 2126 ft 0 kts 257°